Погода в Ушачах

Беларусь     55°10′45″N   28°37′01″E
темп.,
°C
ветер,
м/с
пор.,
м/с
влажн.,
%
обл.,
%
осадки,
мм/ч
давл.,
гПа
погр.,
м
14 августа, вс
вс1400:00+17в227089 0.0 102034
03:00+16в247673 0.0 101970
06:00+16в2576100 0.0 1019108
09:00+21в356463 0.0 1019308
12:00+26в3554100 0.0 1018813
15:00+27вюв3451100 0.0 10181056
18:00+27вюв245588 0.0 10171365
21:00+21вюв228177 0.0 101720
15 августа, пн
пн1500:00+18вюв2390100 0.9 101746
03:00+17вюв239376 0.9 101757
06:00+17вюв259574 0.0 1017105
09:00+21вюв377674 0.0 1017323
12:00+26вюв57529 0.0 10171126
15:00+28вюв464633 0.0 10161537
18:00+27вюв3654100 0.0 10151073
21:00+21в2877100 0.0 1016159
16 августа, вт
вт1600:00+19в287795 0.0 1015169
03:00+18в268755 0.0 1015129
06:00+17всв389599 0.9 1015139
09:00+18в399194 0.9 1015190
12:00+21в3975100 0.0 1015351
15:00+24вюв3764100 0.0 1014511
18:00+26вюв3758100 0.0 1014882
21:00+22вюв31074100 0.1 1015346
17 августа, ср
ср1700:00+20в2878100 0.0 1015188
03:00+17вюв2685100 0.0 1015115
06:00+17вюв268288 0.0 1015111
09:00+22вюв3661100 0.0 1015280
12:00+27в464283 0.0 1015806
15:00+30в463666 0.0 10141814
18:00+28в46455 0.0 10141041
21:00+21всв25675 0.0 101583
18 августа, чт
чт1800:00+19в23745 0.0 101544
03:00+18всв23816 0.0 101550
06:00+18всв258394 0.0 101590
09:00+24всв386038 0.0 1015331
12:00+25вюв365197 0.0 1015574
15:00+25в265375 0.0 1015317
18:00+26в255584 0.0 1015162
21:00+21всв22661 0.0 101522